Regional Weather Roundup
Issued by NWS State College, PA

Home | Current Version | Previous Version | Graphics & Text | Print | Product List | Glossary On
Versions: 1 2 3 4 5 6 7 8 9 10 11 12 13 14 15 16 17 18 19 20 21 22 23 24 25 26 27 28 29 30 31 32 33 34 35 36 37 38 39 40 41 42 43 44 45 46 47 48 49 50
000
ASUS41 KCTP 290010
RWRCTP

REGIONAL WEATHER ROUNDUP
NATIONAL WEATHER SERVICE STATE COLLEGE PA
800 PM EDT THU APR 28 2016

Note: "fair" indicates few or no clouds below 12,000 feet with no
significant weather and/or obstructions to visibility.

* = STATION THAT DOES NOT REPORT PRECIPITATION /E.G. RAIN...SNOW...ETC/
    THUNDER OR FOG.

PAZ002>004-007>009-013>016-020>023-029>032-290100-
WESTERN PENNSYLVANIA

CITY           SKY/WX    TMP DP  RH WIND       PRES   REMARKS
ERIE           CLOUDY    46  41  82 NE12      29.98S
MEADVILLE      CLOUDY    43  42  97 NE8       29.95R
FRANKLIN*      CLOUDY    43  39  87 E6        29.97R
NEW CASTLE     CLOUDY    45  42  89 NE9       29.95R
BEAVER COUNTY  CLOUDY    45  45 100 CALM      29.93R FOG
BUTLER*        CLOUDY    45  41  87 NE9       29.95R
PITTSBURGH INT FOG       50  46  86 N6        29.92R VSB 1
PITTSBURGH     FOG       50  48  93 N3        29.90R VSB 1/4
INDIANA*       CLOUDY    46  45  93 E8        29.96R
LATROBE        CLOUDY    54  52  94 SE9       29.91R
WASHINGTON CO* CLOUDY    54  50  87 N5        29.90S
$$

PAZ004>006-010>012-017>019-024>028-033>037-041-042-045-046-049>053-290100-
CENTRAL PENNSYLVANIA

CITY           SKY/WX    TMP DP  RH WIND       PRES   REMARKS
BRADFORD       LGT RAIN  40  38  93 NE5       29.97R
DUBOIS         CLOUDY    40  39  97 E10       29.94R FOG
CLEARFIELD     LGT RAIN  42  40  92 E7        29.98R FOG
JOHNSTOWN      FOG       43  39  86 SE6       29.93S VSB 1/4
ALTOONA        CLOUDY    42  40  92 E5        29.98S FOG
STATE COLLEGE  RAIN      41  41 100 N5        30.00R
WILLIAMSPORT   LGT RAIN  46  42  86 W3        30.03R
SELINSGROVE    LGT RAIN  46  43  89 CALM      30.03S FOG
FT INDIANTOWN  DRIZZLE   44  44  99 E6        30.03S
CAPITAL CITY   CLOUDY    47  43  86 E9        30.04R
HARRISBURG     CLOUDY    46  42  86 E8        30.04R
YORK           CLOUDY    45  43  93 E9        30.03R FOG
$$

PAZ038>040-043-044-047-048-054-055-060>062-067>071-290100-
EASTERN PENNSYLVANIA

CITY           SKY/WX    TMP DP  RH WIND       PRES   REMARKS
SCRANTON       CLOUDY    46  41  82 W3        30.00S
MOUNT POCONO   CLOUDY    44  39  82 CALM      29.98F
ALLENTOWN      CLOUDY    46  42  86 CALM      30.03S
QUAKERTOWN*    CLOUDY    41  41 100 S5        30.04S
READING        CLOUDY    45  42  89 S3        30.04R
LANCASTER      CLOUDY    43  42  97 E7        30.03S FOG
COATESVILLE    CLOUDY    43  43 100 E7        30.04R FOG
POTTSTOWN      CLOUDY    42  42 100 E3        30.06R
BLUE BELL      CLOUDY    41  39  93 CALM      30.05S
DOYLESTOWN     LGT RAIN  40  40 100 CALM      30.04S
WILLOW GROVE   NOT AVBL
NORTH PHILA    LGT RAIN  44  41  89 NE5       30.08R FOG
PHILADELPHIA   DRIZZLE   45  40  82 NE12      30.06R
$$




USA.gov is the U.S. government's official web portal to all federal, state and local government web resources and services.